Time,TemperatureF,DewpointF,PressureIn,WindDirection,WindDirectionDegrees,WindSpeedMPH,WindSpeedGustMPH,Humidity,HourlyPrecipIn,Conditions,Clouds,dailyrainin,SoftwareType,DateUTC
2013-01-25 00:00:00,9.2,3.2,30.82,West,266,7.0,7.0,76,0.00,,,0.00,Wunderground v.1.15,2013-01-25 05:00:00,
2013-01-25 00:05:00,9.1,3.1,30.82,WSW,247,7.0,13.0,76,0.00,,,0.00,Wunderground v.1.15,2013-01-25 05:05:00,
2013-01-25 00:10:00,9.0,2.7,30.82,WSW,242,7.0,9.0,75,0.00,,,0.00,Wunderground v.1.15,2013-01-25 05:10:00,
2013-01-25 00:15:00,8.9,2.6,30.82,West,259,8.0,9.0,75,0.00,,,0.00,Wunderground v.1.15,2013-01-25 05:15:00,
2013-01-25 00:20:00,9.0,3.0,30.82,WNW,296,7.0,8.0,76,0.00,,,0.00,Wunderground v.1.15,2013-01-25 05:20:00,
2013-01-25 00:25:00,9.0,3.0,30.82,West,281,7.0,8.0,76,0.00,,,0.00,Wunderground v.1.15,2013-01-25 05:25:00,
2013-01-25 00:30:00,8.9,2.9,30.82,West,279,6.0,9.0,76,0.00,,,0.00,Wunderground v.1.15,2013-01-25 05:30:00,
2013-01-25 00:35:00,8.6,2.6,30.82,West,264,6.0,9.0,76,0.00,,,0.00,Wunderground v.1.15,2013-01-25 05:35:00,
2013-01-25 00:40:00,8.5,2.5,30.82,WNW,290,6.0,7.0,76,0.00,,,0.00,Wunderground v.1.15,2013-01-25 05:40:00,
2013-01-25 00:45:00,8.4,2.4,30.82,West,274,6.0,7.0,76,0.00,,,0.00,Wunderground v.1.15,2013-01-25 05:45:00,
2013-01-25 00:50:00,8.3,2.3,30.81,WSW,254,6.0,6.0,76,0.00,,,0.00,Wunderground v.1.15,2013-01-25 05:50:00,
2013-01-25 00:55:00,8.4,2.7,30.81,West,271,6.0,10.0,77,0.00,,,0.00,Wunderground v.1.15,2013-01-25 05:55:00,
2013-01-25 01:00:00,8.3,2.6,30.81,West,280,6.0,6.0,77,0.00,,,0.00,Wunderground v.1.15,2013-01-25 06:00:00,
2013-01-25 01:05:00,8.2,2.2,30.81,West,265,6.0,14.0,76,0.00,,,0.00,Wunderground v.1.15,2013-01-25 06:05:00,
2013-01-25 01:15:00,8.0,2.3,30.80,WSW,254,6.0,14.0,77,0.00,,,0.00,Wunderground v.1.15,2013-01-25 06:15:00,
2013-01-25 01:20:00,8.1,2.4,30.81,West,263,6.0,6.0,77,0.00,,,0.00,Wunderground v.1.15,2013-01-25 06:20:00,
2013-01-25 01:25:00,8.3,2.6,30.81,WSW,257,6.0,14.0,77,0.00,,,0.00,Wunderground v.1.15,2013-01-25 06:25:00,
2013-01-25 01:30:00,8.4,2.9,30.81,WSW,254,7.0,14.0,78,0.00,,,0.00,Wunderground v.1.15,2013-01-25 06:30:00,
2013-01-25 01:35:00,8.4,2.7,30.81,WSW,242,6.0,14.0,77,0.00,,,0.00,Wunderground v.1.15,2013-01-25 06:35:00,
2013-01-25 01:45:00,8.3,2.9,30.81,West,262,8.0,14.0,78,0.00,,,0.00,Wunderground v.1.15,2013-01-25 06:45:00,
2013-01-25 01:50:00,8.3,2.9,30.80,SW,236,7.0,14.0,78,0.00,,,0.00,Wunderground v.1.15,2013-01-25 06:50:00,
2013-01-25 01:55:00,8.5,3.0,30.80,West,261,6.0,14.0,78,0.00,,,0.00,Wunderground v.1.15,2013-01-25 06:55:00,
2013-01-25 02:00:00,8.6,3.4,30.80,WSW,251,6.0,14.0,79,0.00,,,0.00,Wunderground v.1.15,2013-01-25 07:00:00,
2013-01-25 02:05:00,8.6,3.1,30.80,WSW,246,6.0,14.0,78,0.00,,,0.00,Wunderground v.1.15,2013-01-25 07:05:00,
2013-01-25 02:10:00,8.6,3.4,30.80,WSW,248,6.0,14.0,79,0.00,,,0.00,Wunderground v.1.15,2013-01-25 07:10:00,
2013-01-25 02:20:00,8.5,3.3,30.79,West,263,6.0,6.0,79,0.00,,,0.00,Wunderground v.1.15,2013-01-25 07:20:00,
2013-01-25 02:25:00,8.5,3.3,30.80,West,265,6.0,11.0,79,0.00,,,0.00,Wunderground v.1.15,2013-01-25 07:25:00,
2013-01-25 02:30:00,8.6,3.7,30.80,WSW,258,7.0,14.0,80,0.00,,,0.00,Wunderground v.1.15,2013-01-25 07:30:00,
2013-01-25 02:35:00,8.8,3.9,30.80,SW,234,7.0,14.0,80,0.00,,,0.00,Wunderground v.1.15,2013-01-25 07:35:00,
2013-01-25 02:40:00,8.9,4.0,30.80,WSW,257,6.0,14.0,80,0.00,,,0.00,Wunderground v.1.15,2013-01-25 07:40:00,
2013-01-25 02:45:00,8.7,3.8,30.79,West,259,7.0,14.0,80,0.00,,,0.00,Wunderground v.1.15,2013-01-25 07:45:00,
2013-01-25 02:50:00,8.8,3.9,30.79,West,269,6.0,14.0,80,0.00,,,0.00,Wunderground v.1.15,2013-01-25 07:50:00,
2013-01-25 02:55:00,8.8,3.9,30.79,West,269,6.0,14.0,80,0.00,,,0.00,Wunderground v.1.15,2013-01-25 07:55:00,
2013-01-25 03:00:00,9.0,4.4,30.80,WNW,282,5.0,5.0,81,0.00,,,0.00,Wunderground v.1.15,2013-01-25 08:00:00,
2013-01-25 03:05:00,9.3,4.6,30.80,West,265,5.0,14.0,81,0.00,,,0.00,Wunderground v.1.15,2013-01-25 08:05:00,
2013-01-25 03:10:00,9.4,4.7,30.80,WSW,254,5.0,5.0,81,0.00,,,0.00,Wunderground v.1.15,2013-01-25 08:10:00,
2013-01-25 03:15:00,9.3,4.6,30.80,West,262,5.0,6.0,81,0.00,,,0.00,Wunderground v.1.15,2013-01-25 08:15:00,
2013-01-25 03:25:00,9.3,4.6,30.80,West,263,6.0,14.0,81,0.00,,,0.00,Wunderground v.1.15,2013-01-25 08:25:00,
2013-01-25 03:30:00,9.4,5.0,30.80,WNW,294,5.0,5.0,82,0.00,,,0.00,Wunderground v.1.15,2013-01-25 08:30:00,
2013-01-25 03:35:00,9.6,5.2,30.80,West,273,5.0,14.0,82,0.00,,,0.00,Wunderground v.1.15,2013-01-25 08:35:00,
2013-01-25 03:40:00,9.4,5.0,30.80,WNW,284,6.0,6.0,82,0.00,,,0.00,Wunderground v.1.15,2013-01-25 08:40:00,
2013-01-25 03:45:00,9.4,5.0,30.79,WNW,300,6.0,14.0,82,0.00,,,0.00,Wunderground v.1.15,2013-01-25 08:45:00,
2013-01-25 03:55:00,9.3,5.2,30.79,WNW,297,4.0,14.0,83,0.00,,,0.00,Wunderground v.1.15,2013-01-25 08:55:00,
2013-01-25 04:00:00,9.3,7.4,30.79,West,280,5.0,5.0,92,0.00,,,0.00,Wunderground v.1.15,2013-01-25 09:00:00,
2013-01-25 04:05:00,9.3,5.2,30.79,WNW,298,5.0,14.0,83,0.00,,,0.00,Wunderground v.1.15,2013-01-25 09:05:00,
2013-01-25 04:10:00,9.2,5.1,30.79,WNW,296,6.0,14.0,83,0.00,,,0.00,Wunderground v.1.15,2013-01-25 09:10:00,
2013-01-25 04:15:00,9.2,5.1,30.79,WNW,294,5.0,14.0,83,0.00,,,0.00,Wunderground v.1.15,2013-01-25 09:15:00,
2013-01-25 04:20:00,9.2,5.1,30.78,West,281,5.0,14.0,83,0.00,,,0.00,Wunderground v.1.15,2013-01-25 09:20:00,
2013-01-25 04:25:00,9.1,5.0,30.77,WNW,293,5.0,14.0,83,0.00,,,0.00,Wunderground v.1.15,2013-01-25 09:25:00,
2013-01-25 04:30:00,9.0,4.9,30.77,WNW,286,4.0,14.0,83,0.00,,,0.00,Wunderground v.1.15,2013-01-25 09:30:00,
2013-01-25 04:35:00,8.9,5.1,30.77,West,275,4.0,14.0,84,0.00,,,0.00,Wunderground v.1.15,2013-01-25 09:35:00,
2013-01-25 04:40:00,9.0,5.1,30.77,WSW,257,3.0,14.0,84,0.00,,,0.00,Wunderground v.1.15,2013-01-25 09:40:00,
2013-01-25 04:45:00,9.1,5.2,30.77,West,259,3.0,14.0,84,0.00,,,0.00,Wunderground v.1.15,2013-01-25 09:45:00,
2013-01-25 04:55:00,9.1,5.2,30.77,WSW,244,4.0,6.0,84,0.00,,,0.00,Wunderground v.1.15,2013-01-25 09:55:00,
2013-01-25 05:00:00,8.9,5.1,30.76,West,261,4.0,14.0,84,0.00,,,0.00,Wunderground v.1.15,2013-01-25 10:00:00,
2013-01-25 05:05:00,8.8,5.0,30.76,West,274,5.0,14.0,84,0.00,,,0.00,Wunderground v.1.15,2013-01-25 10:05:00,
2013-01-25 05:10:00,8.9,5.1,30.75,West,268,4.0,14.0,84,0.00,,,0.00,Wunderground v.1.15,2013-01-25 10:10:00,
2013-01-25 05:15:00,9.0,5.1,30.75,West,265,4.0,14.0,84,0.00,,,0.00,Wunderground v.1.15,2013-01-25 10:15:00,
2013-01-25 05:20:00,8.9,5.1,30.75,West,281,4.0,4.0,84,0.00,,,0.00,Wunderground v.1.15,2013-01-25 10:20:00,
2013-01-25 05:25:00,8.9,4.8,30.74,West,278,4.0,14.0,83,0.00,,,0.00,Wunderground v.1.15,2013-01-25 10:25:00,
2013-01-25 05:35:00,8.7,4.6,30.74,West,277,3.0,14.0,83,0.00,,,0.00,Wunderground v.1.15,2013-01-25 10:35:00,
2013-01-25 05:40:00,8.8,4.7,30.75,West,279,3.0,3.0,83,0.00,,,0.00,Wunderground v.1.15,2013-01-25 10:40:00,
2013-01-25 05:45:00,8.9,5.1,30.75,West,279,3.0,14.0,84,0.00,,,0.00,Wunderground v.1.15,2013-01-25 10:45:00,
2013-01-25 05:50:00,9.0,5.1,30.74,West,275,3.0,3.0,84,0.00,,,0.00,Wunderground v.1.15,2013-01-25 10:50:00,
2013-01-25 05:55:00,9.0,4.9,30.74,WNW,288,4.0,4.0,83,0.00,,,0.00,Wunderground v.1.15,2013-01-25 10:55:00,
2013-01-25 06:00:00,8.9,4.8,30.74,WNW,289,3.0,4.0,83,0.00,,,0.00,Wunderground v.1.15,2013-01-25 11:00:00,
2013-01-25 06:10:00,8.8,4.7,30.74,WNW,287,4.0,4.0,83,0.00,,,0.00,Wunderground v.1.15,2013-01-25 11:10:00,
2013-01-25 06:15:00,8.6,4.5,30.74,WNW,286,5.0,5.0,83,0.00,,,0.00,Wunderground v.1.15,2013-01-25 11:15:00,
2013-01-25 06:20:00,8.7,4.6,30.74,WNW,291,4.0,5.0,83,0.00,,,0.00,Wunderground v.1.15,2013-01-25 11:20:00,
2013-01-25 06:25:00,8.7,4.6,30.74,WNW,287,4.0,5.0,83,0.00,,,0.00,Wunderground v.1.15,2013-01-25 11:25:00,
2013-01-25 06:30:00,8.8,4.7,30.74,WNW,287,4.0,4.0,83,0.00,,,0.00,Wunderground v.1.15,2013-01-25 11:30:00,
2013-01-25 06:40:00,8.6,4.2,30.74,West,274,3.0,3.0,82,0.00,,,0.00,Wunderground v.1.15,2013-01-25 11:40:00,
2013-01-25 06:45:00,8.7,4.6,30.74,West,274,2.0,3.0,83,0.00,,,0.00,Wunderground v.1.15,2013-01-25 11:45:00,
2013-01-25 06:50:00,8.8,4.7,30.74,West,274,0.0,0.0,83,0.00,,,0.00,Wunderground v.1.15,2013-01-25 11:50:00,
2013-01-25 06:55:00,8.9,4.8,30.74,West,274,1.0,2.0,83,0.00,,,0.00,Wunderground v.1.15,2013-01-25 11:55:00,
2013-01-25 07:00:00,9.0,4.9,30.74,West,274,2.0,2.0,83,0.00,,,0.00,Wunderground v.1.15,2013-01-25 12:00:00,
2013-01-25 07:05:00,9.2,5.1,30.74,West,274,2.0,7.0,83,0.00,,,0.00,Wunderground v.1.15,2013-01-25 12:05:00,
2013-01-25 07:10:00,9.1,4.7,30.74,West,274,1.0,7.0,82,0.00,,,0.00,Wunderground v.1.15,2013-01-25 12:10:00,
2013-01-25 07:15:00,9.0,4.6,30.74,West,274,1.0,7.0,82,0.00,,,0.00,Wunderground v.1.15,2013-01-25 12:15:00,
2013-01-25 07:20:00,8.9,4.5,30.74,West,274,0.0,7.0,82,0.00,,,0.00,Wunderground v.1.15,2013-01-25 12:20:00,
2013-01-25 07:25:00,8.9,4.5,30.74,West,274,0.0,7.0,82,0.00,,,0.00,Wunderground v.1.15,2013-01-25 12:25:00,
2013-01-25 07:30:00,8.9,4.5,30.74,West,274,0.0,7.0,82,0.00,,,0.00,Wunderground v.1.15,2013-01-25 12:30:00,
2013-01-25 07:40:00,9.1,4.7,30.73,West,274,0.0,7.0,82,0.00,,,0.00,Wunderground v.1.15,2013-01-25 12:40:00,
2013-01-25 07:45:00,9.0,4.6,30.73,West,274,0.0,7.0,82,0.00,,,0.00,Wunderground v.1.15,2013-01-25 12:45:00,
2013-01-25 07:50:00,9.0,4.6,30.73,West,274,0.0,7.0,82,0.00,,,0.00,Wunderground v.1.15,2013-01-25 12:50:00,
2013-01-25 07:55:00,9.2,4.8,30.72,West,274,0.0,7.0,82,0.00,,,0.00,Wunderground v.1.15,2013-01-25 12:55:00,
2013-01-25 08:00:00,9.3,4.9,30.72,West,274,0.0,7.0,82,0.00,,,0.00,Wunderground v.1.15,2013-01-25 13:00:00,
2013-01-25 08:05:00,9.4,5.0,30.72,West,274,0.0,7.0,82,0.00,,,0.00,Wunderground v.1.15,2013-01-25 13:05:00,
2013-01-25 08:15:00,9.1,4.7,30.72,West,274,0.0,7.0,82,0.00,,,0.00,Wunderground v.1.15,2013-01-25 13:15:00,
2013-01-25 08:20:00,9.2,4.8,30.72,West,274,0.0,7.0,82,0.00,,,0.00,Wunderground v.1.15,2013-01-25 13:20:00,
2013-01-25 08:25:00,9.4,5.0,30.72,West,274,0.0,7.0,82,0.00,,,0.00,Wunderground v.1.15,2013-01-25 13:25:00,
2013-01-25 08:30:00,9.6,5.2,30.72,West,274,0.0,7.0,82,0.00,,,0.00,Wunderground v.1.15,2013-01-25 13:30:00,
2013-01-25 08:35:00,9.8,5.4,30.72,West,274,0.0,7.0,82,0.00,,,0.00,Wunderground v.1.15,2013-01-25 13:35:00,
2013-01-25 08:45:00,10.0,5.3,30.70,West,274,0.0,7.0,81,0.00,,,0.00,Wunderground v.1.15,2013-01-25 13:45:00,
2013-01-25 08:50:00,9.8,5.1,30.71,West,274,0.0,7.0,81,0.00,,,0.00,Wunderground v.1.15,2013-01-25 13:50:00,
2013-01-25 08:55:00,9.8,5.4,30.70,West,274,0.0,7.0,82,0.00,,,0.00,Wunderground v.1.15,2013-01-25 13:55:00,
2013-01-25 09:00:00,9.7,5.3,30.70,West,274,0.0,7.0,82,0.00,,,0.00,Wunderground v.1.15,2013-01-25 14:00:00,
2013-01-25 09:05:00,9.8,5.4,30.70,West,274,0.0,7.0,82,0.00,,,0.00,Wunderground v.1.15,2013-01-25 14:05:00,
2013-01-25 09:10:00,9.8,5.4,30.70,West,274,0.0,7.0,82,0.00,,,0.00,Wunderground v.1.15,2013-01-25 14:10:00,
2013-01-25 09:20:00,9.8,5.7,30.70,West,274,1.0,1.0,83,0.00,,,0.00,Wunderground v.1.15,2013-01-25 14:20:00,
2013-01-25 09:25:00,10.0,5.9,30.70,West,274,1.0,2.0,83,0.00,,,0.00,Wunderground v.1.15,2013-01-25 14:25:00,
2013-01-25 09:30:00,10.1,6.0,30.70,West,274,1.0,7.0,83,0.00,,,0.00,Wunderground v.1.15,2013-01-25 14:30:00,
2013-01-25 09:35:00,10.3,6.2,30.70,West,274,2.0,7.0,83,0.00,,,0.00,Wunderground v.1.15,2013-01-25 14:35:00,
2013-01-25 09:40:00,10.5,6.4,30.69,West,274,2.0,7.0,83,0.00,,,0.00,Wunderground v.1.15,2013-01-25 14:40:00,
2013-01-25 09:50:00,10.8,6.9,30.68,East,89,2.0,7.0,84,0.00,,,0.00,Wunderground v.1.15,2013-01-25 14:50:00,
2013-01-25 09:55:00,10.9,6.8,30.68,East,90,3.0,7.0,83,0.00,,,0.00,Wunderground v.1.15,2013-01-25 14:55:00,
2013-01-25 10:00:00,11.1,6.9,30.68,East,96,3.0,3.0,83,0.00,,,0.00,Wunderground v.1.15,2013-01-25 15:00:00,
2013-01-25 10:05:00,11.3,7.1,30.68,East,96,3.0,7.0,83,0.00,,,0.00,Wunderground v.1.15,2013-01-25 15:05:00,
2013-01-25 10:10:00,11.4,7.0,30.67,East,91,3.0,7.0,82,0.00,,,0.00,Wunderground v.1.15,2013-01-25 15:10:00,
2013-01-25 10:15:00,11.4,7.0,30.67,East,91,3.0,7.0,82,0.00,,,0.00,Wunderground v.1.15,2013-01-25 15:15:00,
2013-01-25 10:25:00,11.6,6.9,30.67,East,91,2.0,7.0,81,0.00,,,0.00,Wunderground v.1.15,2013-01-25 15:25:00,
2013-01-25 10:30:00,11.8,6.8,30.67,East,92,2.0,7.0,80,0.00,,,0.00,Wunderground v.1.15,2013-01-25 15:30:00,
2013-01-25 10:35:00,11.9,6.9,30.66,East,99,3.0,7.0,80,0.00,,,0.00,Wunderground v.1.15,2013-01-25 15:35:00,
2013-01-25 10:40:00,11.9,6.6,30.66,SE,140,3.0,7.0,79,0.00,,,0.00,Wunderground v.1.15,2013-01-25 15:40:00,
2013-01-25 10:45:00,11.7,6.4,30.66,SE,140,3.0,7.0,79,0.00,,,0.00,Wunderground v.1.15,2013-01-25 15:45:00,
2013-01-25 10:55:00,11.7,6.4,30.65,SE,140,3.0,7.0,79,0.00,,,0.00,Wunderground v.1.15,2013-01-25 15:55:00,
2013-01-25 11:00:00,11.9,6.6,30.65,SE,143,3.0,3.0,79,0.00,,,0.00,Wunderground v.1.15,2013-01-25 16:00:00,
2013-01-25 11:05:00,11.9,6.6,30.65,SE,140,2.0,4.0,79,0.00,,,0.00,Wunderground v.1.15,2013-01-25 16:05:00,
2013-01-25 11:10:00,12.0,6.5,30.64,South,188,2.0,7.0,78,0.00,,,0.00,Wunderground v.1.15,2013-01-25 16:10:00,
2013-01-25 11:15:00,12.0,6.5,30.63,SE,141,3.0,7.0,78,0.00,,,0.00,Wunderground v.1.15,2013-01-25 16:15:00,
2013-01-25 11:20:00,12.0,6.5,30.63,SE,141,4.0,4.0,78,0.00,,,0.00,Wunderground v.1.15,2013-01-25 16:20:00,
2013-01-25 11:30:00,11.9,6.4,30.62,ESE,104,5.0,5.0,78,0.00,,,0.00,Wunderground v.1.15,2013-01-25 16:30:00,
2013-01-25 11:35:00,11.7,6.4,30.62,East,96,5.0,7.0,79,0.00,,,0.00,Wunderground v.1.15,2013-01-25 16:35:00,
2013-01-25 11:40:00,11.9,6.6,30.62,SSE,167,5.0,5.0,79,0.00,,,0.00,Wunderground v.1.15,2013-01-25 16:40:00,
2013-01-25 11:45:00,12.0,6.7,30.61,ESE,123,4.0,7.0,79,0.00,,,0.00,Wunderground v.1.15,2013-01-25 16:45:00,
2013-01-25 11:50:00,12.1,6.8,30.61,East,88,4.0,7.0,79,0.00,,,0.00,Wunderground v.1.15,2013-01-25 16:50:00,
2013-01-25 11:55:00,12.2,6.9,30.60,East,90,3.0,7.0,79,0.00,,,0.00,Wunderground v.1.15,2013-01-25 16:55:00,
2013-01-25 12:00:00,12.3,7.0,30.59,East,92,3.0,6.0,79,0.00,,,0.00,Wunderground v.1.15,2013-01-25 17:00:00,
2013-01-25 12:10:00,12.8,7.8,30.58,ESE,116,3.0,3.0,80,0.00,,,0.00,Wunderground v.1.15,2013-01-25 17:10:00,
2013-01-25 12:15:00,12.7,7.4,30.58,SE,144,3.0,5.0,79,0.00,,,0.00,Wunderground v.1.15,2013-01-25 17:15:00,
2013-01-25 12:20:00,12.5,7.5,30.58,South,188,4.0,4.0,80,0.00,,,0.00,Wunderground v.1.15,2013-01-25 17:20:00,
2013-01-25 12:30:00,12.7,7.7,30.57,South,179,5.0,5.0,80,0.00,,,0.00,Wunderground v.1.15,2013-01-25 17:30:00,
2013-01-25 12:35:00,12.8,7.5,30.57,SE,132,5.0,8.0,79,0.00,,,0.00,Wunderground v.1.15,2013-01-25 17:35:00,
2013-01-25 12:40:00,12.8,7.2,30.56,SE,129,5.0,6.0,78,0.00,,,0.00,Wunderground v.1.15,2013-01-25 17:40:00,
2013-01-25 12:45:00,13.0,7.1,30.56,SSE,159,5.0,6.0,77,0.00,,,0.00,Wunderground v.1.15,2013-01-25 17:45:00,
2013-01-25 12:50:00,12.8,6.9,30.56,SE,140,6.0,6.0,77,0.00,,,0.00,Wunderground v.1.15,2013-01-25 17:50:00,
2013-01-25 12:55:00,13.0,6.9,30.55,ESE,104,6.0,6.0,76,0.00,,,0.00,Wunderground v.1.15,2013-01-25 17:55:00,
2013-01-25 13:05:00,13.1,6.4,30.54,SE,138,5.0,9.0,74,0.00,,,0.00,Wunderground v.1.15,2013-01-25 18:05:00,
2013-01-25 13:10:00,13.4,7.0,30.53,ESE,103,4.0,4.0,75,0.00,,,0.00,Wunderground v.1.15,2013-01-25 18:10:00,
2013-01-25 13:15:00,13.6,7.1,30.53,SE,134,4.0,7.0,75,0.00,,,0.00,Wunderground v.1.15,2013-01-25 18:15:00,
2013-01-25 13:20:00,13.4,6.7,30.53,SE,142,4.0,9.0,74,0.00,,,0.00,Wunderground v.1.15,2013-01-25 18:20:00,
2013-01-25 13:25:00,13.6,6.8,30.52,SE,140,3.0,9.0,74,0.00,,,0.00,Wunderground v.1.15,2013-01-25 18:25:00,
2013-01-25 13:35:00,13.5,6.5,30.52,South,171,4.0,9.0,73,0.00,,,0.00,Wunderground v.1.15,2013-01-25 18:35:00,
2013-01-25 13:40:00,13.5,6.5,30.51,South,178,5.0,5.0,73,0.00,,,0.00,Wunderground v.1.15,2013-01-25 18:40:00,
2013-01-25 13:45:00,13.5,6.1,30.51,SSE,155,5.0,9.0,72,0.00,,,0.00,Wunderground v.1.15,2013-01-25 18:45:00,
2013-01-25 13:50:00,13.5,6.1,30.51,SSE,161,5.0,9.0,72,0.00,,,0.00,Wunderground v.1.15,2013-01-25 18:50:00,
2013-01-25 13:55:00,13.6,6.2,30.51,SSE,157,4.0,9.0,72,0.00,,,0.00,Wunderground v.1.15,2013-01-25 18:55:00,
2013-01-25 14:00:00,13.8,6.4,30.51,South,177,4.0,9.0,72,0.00,,,0.00,Wunderground v.1.15,2013-01-25 19:00:00,
2013-01-25 14:10:00,13.7,6.3,30.50,SSE,161,4.0,9.0,72,0.00,,,0.00,Wunderground v.1.15,2013-01-25 19:10:00,
2013-01-25 14:15:00,13.7,6.0,30.50,South,183,4.0,9.0,71,0.00,,,0.00,Wunderground v.1.15,2013-01-25 19:15:00,
2013-01-25 14:20:00,13.9,6.2,30.50,SSE,159,4.0,9.0,71,0.00,,,0.00,Wunderground v.1.15,2013-01-25 19:20:00,
2013-01-25 14:25:00,13.9,5.9,30.50,SSE,156,4.0,9.0,70,0.00,,,0.00,Wunderground v.1.15,2013-01-25 19:25:00,
2013-01-25 14:30:00,13.9,6.2,30.50,SSE,152,3.0,9.0,71,0.00,,,0.00,Wunderground v.1.15,2013-01-25 19:30:00,
2013-01-25 14:40:00,13.8,5.8,30.49,SSE,149,4.0,9.0,70,0.00,,,0.00,Wunderground v.1.15,2013-01-25 19:40:00,
2013-01-25 14:45:00,13.9,5.9,30.49,ESE,121,4.0,9.0,70,0.00,,,0.00,Wunderground v.1.15,2013-01-25 19:45:00,
2013-01-25 14:50:00,14.1,6.4,30.49,ESE,121,2.0,9.0,71,0.00,,,0.00,Wunderground v.1.15,2013-01-25 19:50:00,
2013-01-25 14:55:00,14.1,6.1,30.48,ESE,105,3.0,9.0,70,0.00,,,0.00,Wunderground v.1.15,2013-01-25 19:55:00,
2013-01-25 15:00:00,14.0,6.0,30.48,ESE,103,3.0,3.0,70,0.00,,,0.00,Wunderground v.1.15,2013-01-25 20:00:00,
2013-01-25 15:05:00,14.0,6.0,30.48,ESE,109,3.0,4.0,70,0.00,,,0.00,Wunderground v.1.15,2013-01-25 20:05:00,
2013-01-25 15:15:00,14.1,6.1,30.48,ESE,104,4.0,9.0,70,0.00,,,0.00,Wunderground v.1.15,2013-01-25 20:15:00,
2013-01-25 15:20:00,14.1,6.1,30.48,East,97,5.0,5.0,70,0.00,,,0.00,Wunderground v.1.15,2013-01-25 20:20:00,
2013-01-25 15:25:00,14.2,6.2,30.48,SE,141,4.0,9.0,70,0.00,,,0.00,Wunderground v.1.15,2013-01-25 20:25:00,
2013-01-25 15:30:00,14.1,6.7,30.47,SSE,148,3.0,9.0,72,0.00,,,0.00,Wunderground v.1.15,2013-01-25 20:30:00,
2013-01-25 15:35:00,13.9,7.4,30.47,East,98,4.0,9.0,75,0.00,,,0.00,Wunderground v.1.15,2013-01-25 20:35:00,
2013-01-25 15:40:00,13.6,7.7,30.47,East,88,5.0,5.0,77,0.00,,,0.00,Wunderground v.1.15,2013-01-25 20:40:00,
2013-01-25 15:45:00,13.5,8.2,30.47,SE,143,4.0,9.0,79,0.00,,,0.00,Wunderground v.1.15,2013-01-25 20:45:00,
2013-01-25 15:55:00,13.1,8.6,30.46,East,101,4.0,9.0,82,0.00,,,0.00,Wunderground v.1.15,2013-01-25 20:55:00,
2013-01-25 16:00:00,13.0,8.8,30.45,East,98,4.0,4.0,83,0.00,,,0.00,Wunderground v.1.15,2013-01-25 21:00:00,
2013-01-25 16:05:00,12.9,9.0,30.45,ESE,103,4.0,9.0,84,0.00,,,0.00,Wunderground v.1.15,2013-01-25 21:05:00,
2013-01-25 16:10:00,12.9,9.0,30.45,ESE,103,4.0,9.0,84,0.00,,,0.00,Wunderground v.1.15,2013-01-25 21:10:00,
2013-01-25 16:20:00,12.9,9.5,30.45,East,101,3.0,3.0,86,0.00,,,0.00,Wunderground v.1.15,2013-01-25 21:20:00,
2013-01-25 16:25:00,12.8,9.4,30.44,East,101,3.0,9.0,86,0.00,,,0.00,Wunderground v.1.15,2013-01-25 21:25:00,
2013-01-25 16:30:00,12.9,9.5,30.44,East,101,3.0,9.0,86,0.00,,,0.00,Wunderground v.1.15,2013-01-25 21:30:00,
2013-01-25 16:35:00,12.9,9.5,30.44,East,101,3.0,9.0,86,0.00,,,0.00,Wunderground v.1.15,2013-01-25 21:35:00,
2013-01-25 16:40:00,13.0,9.9,30.44,East,101,3.0,9.0,87,0.00,,,0.00,Wunderground v.1.15,2013-01-25 21:40:00,
2013-01-25 16:45:00,12.8,9.7,30.44,East,101,4.0,9.0,87,0.00,,,0.00,Wunderground v.1.15,2013-01-25 21:45:00,
2013-01-25 16:50:00,12.8,9.7,30.44,East,82,5.0,5.0,87,0.00,,,0.00,Wunderground v.1.15,2013-01-25 21:50:00,
2013-01-25 16:55:00,12.9,9.8,30.44,East,101,5.0,7.0,87,0.00,,,0.00,Wunderground v.1.15,2013-01-25 21:55:00,
2013-01-25 17:00:00,12.9,9.8,30.44,East,96,4.0,9.0,87,0.00,,,0.00,Wunderground v.1.15,2013-01-25 22:00:00,
2013-01-25 17:05:00,13.0,9.9,30.44,East,96,4.0,9.0,87,0.00,,,0.00,Wunderground v.1.15,2013-01-25 22:05:00,
2013-01-25 17:10:00,13.0,10.1,30.44,East,84,3.0,9.0,88,0.00,,,0.00,Wunderground v.1.15,2013-01-25 22:10:00,
2013-01-25 17:20:00,12.9,10.0,30.44,ENE,76,3.0,3.0,88,0.00,,,0.00,Wunderground v.1.15,2013-01-25 22:20:00,
2013-01-25 17:25:00,12.9,10.0,30.43,ENE,74,2.0,9.0,88,0.00,,,0.00,Wunderground v.1.15,2013-01-25 22:25:00,
2013-01-25 17:30:00,12.8,9.9,30.43,ENE,73,3.0,3.0,88,0.00,,,0.00,Wunderground v.1.15,2013-01-25 22:30:00,
2013-01-25 17:35:00,12.8,9.9,30.43,ENE,70,3.0,5.0,88,0.00,,,0.00,Wunderground v.1.15,2013-01-25 22:35:00,
2013-01-25 17:40:00,12.6,9.7,30.43,ENE,68,3.0,9.0,88,0.00,,,0.00,Wunderground v.1.15,2013-01-25 22:40:00,
2013-01-25 17:45:00,12.6,10.0,30.43,ENE,68,3.0,9.0,89,0.00,,,0.00,Wunderground v.1.15,2013-01-25 22:45:00,
2013-01-25 17:55:00,12.6,10.0,30.43,ENE,63,3.0,9.0,89,0.00,,,0.00,Wunderground v.1.15,2013-01-25 22:55:00,
2013-01-25 18:00:00,12.6,10.0,30.43,ENE,63,3.0,3.0,89,0.00,,,0.00,Wunderground v.1.15,2013-01-25 23:00:00,
2013-01-25 18:10:00,12.6,10.0,30.43,ENE,57,3.0,5.0,89,0.00,,,0.00,Wunderground v.1.15,2013-01-25 23:10:00,
2013-01-25 18:15:00,12.6,10.0,30.43,ENE,57,3.0,5.0,89,0.00,,,0.00,Wunderground v.1.15,2013-01-25 23:15:00,
2013-01-25 18:25:00,12.4,9.8,30.43,ENE,57,3.0,4.0,89,0.00,,,0.00,Wunderground v.1.15,2013-01-25 23:25:00,
2013-01-25 18:30:00,12.4,9.8,30.42,ENE,57,3.0,3.0,89,0.00,,,0.00,Wunderground v.1.15,2013-01-25 23:30:00,
2013-01-25 18:35:00,12.3,9.7,30.42,ENE,57,3.0,3.0,89,0.00,,,0.00,Wunderground v.1.15,2013-01-25 23:35:00,
2013-01-25 18:40:00,12.3,9.7,30.42,NE,54,3.0,5.0,89,0.00,,,0.00,Wunderground v.1.15,2013-01-25 23:40:00,
2013-01-25 18:45:00,12.2,9.6,30.42,NE,54,3.0,5.0,89,0.00,,,0.00,Wunderground v.1.15,2013-01-25 23:45:00,
2013-01-25 18:50:00,12.1,9.5,30.42,NE,54,3.0,3.0,89,0.00,,,0.00,Wunderground v.1.15,2013-01-25 23:50:00,
2013-01-25 19:00:00,12.1,9.5,30.42,NE,54,2.0,3.0,89,0.00,,,0.00,Wunderground v.1.15,2013-01-26 00:00:00,
2013-01-25 19:05:00,12.0,9.4,30.42,NE,54,3.0,5.0,89,0.00,,,0.00,Wunderground v.1.15,2013-01-26 00:05:00,
2013-01-25 19:10:00,11.9,9.3,30.42,NE,54,3.0,5.0,89,0.00,,,0.00,Wunderground v.1.15,2013-01-26 00:10:00,
2013-01-25 19:15:00,11.8,9.2,30.42,NE,54,3.0,5.0,89,0.00,,,0.00,Wunderground v.1.15,2013-01-26 00:15:00,
2013-01-25 19:20:00,11.8,9.2,30.42,NE,51,4.0,4.0,89,0.00,,,0.00,Wunderground v.1.15,2013-01-26 00:20:00,
2013-01-25 19:30:00,11.4,8.8,30.42,NE,51,4.0,4.0,89,0.00,,,0.00,Wunderground v.1.15,2013-01-26 00:30:00,
2013-01-25 19:35:00,11.3,8.7,30.42,NE,51,3.0,5.0,89,0.00,,,0.00,Wunderground v.1.15,2013-01-26 00:35:00,
2013-01-25 19:40:00,11.2,8.6,30.42,NE,51,3.0,3.0,89,0.00,,,0.00,Wunderground v.1.15,2013-01-26 00:40:00,
2013-01-25 19:45:00,11.0,8.4,30.42,NE,51,3.0,5.0,89,0.00,,,0.00,Wunderground v.1.15,2013-01-26 00:45:00,
2013-01-25 19:50:00,10.9,8.3,30.42,NE,51,2.0,5.0,89,0.00,,,0.00,Wunderground v.1.15,2013-01-26 00:50:00,
2013-01-25 19:55:00,10.7,8.1,30.42,NE,51,2.0,5.0,89,0.00,,,0.00,Wunderground v.1.15,2013-01-26 00:55:00,
2013-01-25 20:05:00,10.3,7.7,30.42,NE,51,2.0,5.0,89,0.00,,,0.00,Wunderground v.1.15,2013-01-26 01:05:00,
2013-01-25 20:10:00,10.1,7.5,30.42,NE,51,3.0,3.0,89,0.00,,,0.00,Wunderground v.1.15,2013-01-26 01:10:00,
2013-01-25 20:15:00,9.9,7.3,30.42,NE,51,3.0,4.0,89,0.00,,,0.00,Wunderground v.1.15,2013-01-26 01:15:00,
2013-01-25 20:20:00,9.8,7.2,30.42,NE,51,3.0,5.0,89,0.00,,,0.00,Wunderground v.1.15,2013-01-26 01:20:00,
2013-01-25 20:25:00,9.7,7.1,30.42,NE,51,3.0,5.0,89,0.00,,,0.00,Wunderground v.1.15,2013-01-26 01:25:00,
2013-01-25 20:35:00,9.4,6.8,30.41,NE,51,2.0,5.0,89,0.00,,,0.00,Wunderground v.1.15,2013-01-26 01:35:00,
2013-01-25 20:40:00,9.2,6.6,30.41,NE,51,2.0,5.0,89,0.00,,,0.00,Wunderground v.1.15,2013-01-26 01:40:00,
2013-01-25 20:45:00,9.1,6.5,30.41,NE,51,2.0,5.0,89,0.00,,,0.00,Wunderground v.1.15,2013-01-26 01:45:00,
2013-01-25 20:50:00,9.0,6.4,30.41,NE,51,2.0,5.0,89,0.00,,,0.00,Wunderground v.1.15,2013-01-26 01:50:00,
2013-01-25 20:55:00,9.0,6.4,30.41,NE,51,2.0,5.0,89,0.00,,,0.00,Wunderground v.1.15,2013-01-26 01:55:00,
2013-01-25 21:00:00,8.9,6.3,30.41,NE,51,2.0,5.0,89,0.00,,,0.00,Wunderground v.1.15,2013-01-26 02:00:00,
2013-01-25 21:10:00,8.7,6.1,30.42,NE,51,1.0,5.0,89,0.00,,,0.00,Wunderground v.1.15,2013-01-26 02:10:00,
2013-01-25 21:15:00,8.6,6.0,30.42,NE,51,1.0,5.0,89,0.00,,,0.00,Wunderground v.1.15,2013-01-26 02:15:00,
2013-01-25 21:20:00,8.6,6.0,30.42,NE,51,1.0,5.0,89,0.00,,,0.00,Wunderground v.1.15,2013-01-26 02:20:00,
2013-01-25 21:25:00,8.5,5.9,30.41,NE,51,1.0,5.0,89,0.00,,,0.00,Wunderground v.1.15,2013-01-26 02:25:00,
2013-01-25 21:30:00,8.3,5.7,30.41,NE,51,2.0,2.0,89,0.00,,,0.00,Wunderground v.1.15,2013-01-26 02:30:00,
2013-01-25 21:35:00,8.2,5.6,30.41,NE,51,1.0,5.0,89,0.00,,,0.00,Wunderground v.1.15,2013-01-26 02:35:00,
2013-01-25 21:45:00,8.1,5.5,30.41,NE,51,2.0,5.0,89,0.00,,,0.00,Wunderground v.1.15,2013-01-26 02:45:00,
2013-01-25 21:50:00,8.1,5.5,30.41,NE,51,1.0,5.0,89,0.00,,,0.00,Wunderground v.1.15,2013-01-26 02:50:00,
2013-01-25 21:55:00,7.8,5.2,30.41,NE,51,1.0,5.0,89,0.00,,,0.00,Wunderground v.1.15,2013-01-26 02:55:00,
2013-01-25 22:00:00,7.7,5.1,30.41,NE,51,1.0,1.0,89,0.00,,,0.00,Wunderground v.1.15,2013-01-26 03:00:00,
2013-01-25 22:05:00,7.6,5.0,30.41,NE,51,1.0,5.0,89,0.00,,,0.00,Wunderground v.1.15,2013-01-26 03:05:00,
2013-01-25 22:10:00,7.5,4.9,30.41,NE,51,1.0,1.0,89,0.00,,,0.00,Wunderground v.1.15,2013-01-26 03:10:00,
2013-01-25 22:15:00,7.4,4.8,30.41,NE,51,0.0,5.0,89,0.00,,,0.00,Wunderground v.1.15,2013-01-26 03:15:00,
2013-01-25 22:20:00,7.4,4.8,30.41,NE,51,0.0,5.0,89,0.00,,,0.00,Wunderground v.1.15,2013-01-26 03:20:00,
2013-01-25 22:25:00,7.3,4.7,30.41,NE,51,0.0,5.0,89,0.00,,,0.00,Wunderground v.1.15,2013-01-26 03:25:00,
2013-01-25 22:35:00,7.1,4.8,30.41,NE,51,1.0,5.0,90,0.00,,,0.00,Wunderground v.1.15,2013-01-26 03:35:00,
2013-01-25 22:40:00,6.9,4.3,30.42,NE,51,0.0,5.0,89,0.00,,,0.00,Wunderground v.1.15,2013-01-26 03:40:00,
2013-01-25 22:45:00,6.8,4.2,30.42,NE,51,0.0,5.0,89,0.00,,,0.00,Wunderground v.1.15,2013-01-26 03:45:00,
2013-01-25 22:50:00,6.7,4.1,30.42,NE,51,0.0,5.0,89,0.00,,,0.00,Wunderground v.1.15,2013-01-26 03:50:00,
2013-01-25 22:55:00,6.6,4.0,30.42,NE,51,0.0,5.0,89,0.00,,,0.00,Wunderground v.1.15,2013-01-26 03:55:00,
2013-01-25 23:00:00,6.6,4.0,30.42,NE,51,0.0,5.0,89,0.00,,,0.00,Wunderground v.1.15,2013-01-26 04:00:00,
2013-01-25 23:05:00,6.4,3.9,30.42,NE,51,0.0,5.0,89,0.00,,,0.00,Wunderground v.1.15,2013-01-26 04:05:00,
2013-01-25 23:15:00,6.4,3.9,30.42,NE,51,0.0,5.0,89,0.00,,,0.00,Wunderground v.1.15,2013-01-26 04:15:00,
2013-01-25 23:20:00,6.3,3.8,30.42,NE,51,0.0,5.0,89,0.00,,,0.00,Wunderground v.1.15,2013-01-26 04:20:00,
2013-01-25 23:25:00,6.0,3.5,30.42,NE,51,0.0,5.0,89,0.00,,,0.00,Wunderground v.1.15,2013-01-26 04:25:00,
2013-01-25 23:30:00,5.6,2.8,30.42,NE,51,0.0,5.0,88,0.00,,,0.00,Wunderground v.1.15,2013-01-26 04:30:00,
2013-01-25 23:35:00,5.3,2.5,30.42,NE,51,0.0,5.0,88,0.00,,,0.00,Wunderground v.1.15,2013-01-26 04:35:00,
2013-01-25 23:40:00,5.2,2.4,30.42,NE,51,0.0,5.0,88,0.00,,,0.00,Wunderground v.1.15,2013-01-26 04:40:00,
2013-01-25 23:50:00,4.5,1.7,30.42,NE,51,0.0,5.0,88,0.00,,,0.00,Wunderground v.1.15,2013-01-26 04:50:00,
2013-01-25 23:55:00,4.1,1.3,30.42,NE,51,0.0,5.0,88,0.00,,,0.00,Wunderground v.1.15,2013-01-26 04:55:00,